Location: Casteau
(50.5142°N, 4.0161°E)
Time: 21:02:54
(UTC+00:00)

Tiros 1 - Pass Details

Date: 04 August 2021
Orbit: 630 x 663 km, 48.4° (Epoch: 28 September)

Event Time Altitude Azimuth Distance (km) Brightness Sun altitude
Rises 21:02:05 0° 279° (W) 2,978 11.4 -13.1°
Reaches altitude 10° 21:04:31 10° 273° (W) 2,060 10.4 -13.3°
Maximum altitude 21:09:02 45° 201° (SSW) 880 7.6 -13.8°
Enters shadow 21:11:38 23° 140° (SE) 1,379 8.2 -14.1°
Drops below altitude 10° 21:13:30 10° 129° (SE) 2,033 - -14.3°
Sets 21:15:53 0° 123° (ESE) 2,935 - -14.5°
